When you browse on this site, cookies collect data to enhance your experience and personalize the content and advertising you see.
Visit our Privacy Policy to learn more. By continuing to use the site, you agree to this use of cookies and data.
  • In Latvia
  • List of Countries
  • For 7 days
  • Water Temperature
  • Weather Map
  • Weather Widgets
  • user-avatar
    Login

    Hourly Weather Zhdanov

    Today, 25 August, Sunday

    Time Temperature Precipitation Wind Pressure Humidity
    00:00 +19°C° 0 mm 2 mps 762 mmHg 58%
    01:00 +19°C° 0 mm 2 mps 762 mmHg 59%
    02:00 +18°C° 0 mm 2 mps 762 mmHg 60%
    03:00 +19°C° 0 mm 1 mps 762 mmHg 60%
    04:00 +19°C° 0 mm 1 mps 762 mmHg 61%
    05:00 +19°C° 0 mm 1 mps 762 mmHg 61%
    06:00 +19°C° 0 mm 1 mps 762 mmHg 62%
    07:00 +20°C° 0 mm 2 mps 762 mmHg 57%
    08:00 +21°C° 0 mm 2 mps 762 mmHg 53%
    09:00 +24°C° 0 mm 3 mps 762 mmHg 47%
    10:00 +25°C° 0 mm 3 mps 762 mmHg 44%
    11:00 +26°C° 0 mm 4 mps 762 mmHg 41%
    12:00 +27°C° 0 mm 4 mps 761 mmHg 38%
    13:00 +27°C° 0 mm 4 mps 761 mmHg 40%
    14:00 +27°C° 0 mm 5 mps 761 mmHg 41%
    15:00 +28°C° 0 mm 5 mps 761 mmHg 38%
    16:00 +27°C° 0 mm 5 mps 761 mmHg 43%
    17:00 +26°C° 0 mm 5 mps 761 mmHg 48%
    18:00 +25°C° 0 mm 5 mps 761 mmHg 54%
    19:00 +23°C° 0 mm 5 mps 762 mmHg 57%
    20:00 +21°C° 0 mm 5 mps 763 mmHg 61%
    21:00 +20°C° 0 mm 5 mps 763 mmHg 65%
    22:00 +19°C° 0 mm 5 mps 764 mmHg 68%
    23:00 +16°C° 0 mm 5 mps 764 mmHg 70%

    Tomorrow, 26 August, Monday

    Time Temperature Precipitation Wind Pressure Humidity
    00:00 +15°C° 0 mm 5 mps 764 mmHg 73%
    01:00 +15°C° 0 mm 5 mps 764 mmHg 75%
    02:00 +14°C° 0 mm 5 mps 765 mmHg 78%
    03:00 +13°C° 0 mm 5 mps 765 mmHg 80%
    04:00 +13°C° 0 mm 4 mps 765 mmHg 82%
    05:00 +13°C° 0 mm 4 mps 766 mmHg 83%
    06:00 +13°C° 0 mm 4 mps 766 mmHg 84%
    07:00 +15°C° 0 mm 4 mps 766 mmHg 76%
    08:00 +17°C° 0 mm 4 mps 767 mmHg 69%
    09:00 +19°C° 0 mm 4 mps 767 mmHg 61%
    10:00 +20°C° 0 mm 4 mps 767 mmHg 55%
    11:00 +21°C° 0 mm 4 mps 766 mmHg 49%
    12:00 +22°C° 0 mm 3 mps 766 mmHg 43%
    13:00 +24°C° 0 mm 3 mps 766 mmHg 41%
    14:00 +24°C° 0 mm 3 mps 766 mmHg 39%
    15:00 +25°C° 0 mm 3 mps 766 mmHg 37%
    16:00 +24°C° 0 mm 3 mps 766 mmHg 40%
    17:00 +23°C° 0 mm 2 mps 765 mmHg 43%
    18:00 +23°C° 0 mm 2 mps 765 mmHg 45%
    19:00 +20°C° 0 mm 2 mps 765 mmHg 49%
    20:00 +19°C° 0 mm 2 mps 765 mmHg 52%
    21:00 +17°C° 0 mm 2 mps 765 mmHg 56%
    22:00 +18°C° 0 mm 1 mps 765 mmHg 56%
    23:00 +16°C° 0 mm 1 mps 765 mmHg 57%

    Day after tomorrow, 27 August, Tuesday

    Time Temperature Precipitation Wind Pressure Humidity
    00:00 +14°C° 0 mm 0 mps 765 mmHg 58%
    01:00 +14°C° 0 mm 0 mps 764 mmHg 59%
    02:00 +14°C° 0 mm 0 mps 764 mmHg 60%
    03:00 +14°C° 0 mm 0 mps 764 mmHg 60%
    04:00 +15°C° 0 mm 1 mps 764 mmHg 60%
    05:00 +15°C° 0 mm 1 mps 763 mmHg 60%
    06:00 +16°C° 0 mm 2 mps 763 mmHg 60%
    07:00 +17°C° 0 mm 2 mps 762 mmHg 56%
    08:00 +19°C° 0 mm 3 mps 762 mmHg 52%
    09:00 +20°C° 0 mm 4 mps 762 mmHg 49%
    10:00 +21°C° 0 mm 4 mps 761 mmHg 48%
    11:00 +21°C° 0 mm 5 mps 761 mmHg 48%
    12:00 +22°C° 0 mm 5 mps 760 mmHg 47%
    13:00 +22°C° 0 mm 5 mps 759 mmHg 47%
    14:00 +23°C° 0 mm 6 mps 759 mmHg 47%
    15:00 +23°C° 0 mm 6 mps 758 mmHg 47%
    16:00 +22°C° 0.4 mm 5 mps 758 mmHg 53%
    17:00 +21°C° 0.4 mm 5 mps 757 mmHg 59%
    18:00 +21°C° 0.4 mm 4 mps 757 mmHg 66%
    19:00 +20°C° 0.3 mm 4 mps 757 mmHg 71%
    20:00 +19°C° 0.3 mm 4 mps 757 mmHg 76%
    21:00 +17°C° 0.3 mm 4 mps 757 mmHg 81%
    22:00 +17°C° 0 mm 4 mps 756 mmHg 82%
    23:00 +15°C° 0 mm 4 mps 756 mmHg 83%

    28 August, Wednesday

    Time Temperature Precipitation Wind Pressure Humidity
    00:00 +15°C° 0 mm 4 mps 756 mmHg 85%
    01:00 +15°C° 0 mm 4 mps 756 mmHg 85%
    02:00 +14°C° 0 mm 4 mps 756 mmHg 84%
    03:00 +14°C° 0 mm 4 mps 756 mmHg 84%
    04:00 +14°C° 0 mm 5 mps 756 mmHg 83%
    05:00 +14°C° 0 mm 6 mps 756 mmHg 81%
    06:00 +14°C° 0 mm 7 mps 756 mmHg 80%
    07:00 +14°C° 0 mm 7 mps 757 mmHg 72%
    08:00 +12°C° 0 mm 8 mps 757 mmHg 64%
    09:00 +12°C° 0 mm 9 mps 757 mmHg 55%
    10:00 +13°C° 0 mm 9 mps 757 mmHg 53%
    11:00 +13°C° 0 mm 9 mps 758 mmHg 50%
    12:00 +14°C° 0 mm 10 mps 758 mmHg 47%
    13:00 +13°C° 0 mm 9 mps 758 mmHg 47%
    14:00 +13°C° 0 mm 9 mps 759 mmHg 47%
    15:00 +13°C° 0 mm 9 mps 759 mmHg 47%
    16:00 +12°C° 0 mm 9 mps 759 mmHg 51%
    17:00 +12°C° 0 mm 9 mps 759 mmHg 55%
    18:00 +12°C° 0 mm 9 mps 760 mmHg 59%
    19:00 +11°C° 0 mm 8 mps 760 mmHg 60%
    20:00 +11°C° 0 mm 8 mps 760 mmHg 61%
    21:00 +11°C° 0 mm 8 mps 760 mmHg 63%
    22:00 +10°C° 0 mm 8 mps 760 mmHg 65%
    23:00 +10°C° 0 mm 7 mps 760 mmHg 68%

    29 August, Thursday

    Time Temperature Precipitation Wind Pressure Humidity
    00:00 +9°C° 0 mm 7 mps 760 mmHg 71%
    01:00 +9°C° 0 mm 7 mps 760 mmHg 72%
    02:00 +7°C° 0 mm 8 mps 761 mmHg 73%
    03:00 +7°C° 0 mm 8 mps 761 mmHg 74%
    04:00 +7°C° 0 mm 8 mps 761 mmHg 74%
    05:00 +7°C° 0 mm 8 mps 761 mmHg 74%
    06:00 +6°C° 0 mm 8 mps 761 mmHg 75%
    07:00 +9°C° 0 mm 8 mps 761 mmHg 68%
    08:00 +10°C° 0 mm 8 mps 761 mmHg 62%
    09:00 +11°C° 0 mm 8 mps 761 mmHg 55%
    10:00 +12°C° 0 mm 8 mps 761 mmHg 51%
    11:00 +15°C° 0 mm 8 mps 761 mmHg 47%
    12:00 +16°C° 0 mm 8 mps 761 mmHg 43%
    13:00 +16°C° 0 mm 8 mps 761 mmHg 42%
    14:00 +16°C° 0 mm 8 mps 761 mmHg 41%
    15:00 +17°C° 0 mm 8 mps 761 mmHg 40%
    16:00 +16°C° 0 mm 7 mps 761 mmHg 43%
    17:00 +15°C° 0 mm 6 mps 761 mmHg 45%
    18:00 +15°C° 0 mm 6 mps 761 mmHg 48%
    19:00 +14°C° 0 mm 5 mps 762 mmHg 52%
    20:00 +12°C° 0 mm 5 mps 762 mmHg 56%
    21:00 +10°C° 0 mm 5 mps 762 mmHg 59%
    22:00 +10°C° 0 mm 5 mps 762 mmHg 62%
    23:00 +9°C° 0 mm 5 mps 762 mmHg 64%

    30 August, Friday

    Time Temperature Precipitation Wind Pressure Humidity
    00:00 +8°C° 0 mm 5 mps 762 mmHg 66%
    01:00 +8°C° 0 mm 5 mps 762 mmHg 69%
    02:00 +7°C° 0 mm 5 mps 762 mmHg 72%
    03:00 +7°C° 0 mm 5 mps 762 mmHg 74%
    04:00 +7°C° 0 mm 5 mps 762 mmHg 74%
    05:00 +7°C° 0 mm 5 mps 762 mmHg 74%
    06:00 +7°C° 0 mm 5 mps 763 mmHg 73%
    07:00 +9°C° 0 mm 5 mps 763 mmHg 69%
    08:00 +10°C° 0 mm 5 mps 763 mmHg 64%
    09:00 +13°C° 0 mm 5 mps 763 mmHg 59%
    10:00 +14°C° 0 mm 5 mps 763 mmHg 55%
    11:00 +15°C° 0 mm 5 mps 763 mmHg 51%
    12:00 +17°C° 0 mm 5 mps 763 mmHg 47%
    13:00 +18°C° 0 mm 4 mps 763 mmHg 46%
    14:00 +18°C° 0 mm 4 mps 763 mmHg 45%
    15:00 +18°C° 0 mm 4 mps 762 mmHg 45%
    16:00 +18°C° 0 mm 4 mps 763 mmHg 46%
    17:00 +17°C° 0 mm 4 mps 763 mmHg 47%
    18:00 +17°C° 0 mm 4 mps 763 mmHg 49%
    19:00 +15°C° 0 mm 4 mps 763 mmHg 52%
    20:00 +14°C° 0 mm 4 mps 763 mmHg 55%
    21:00 +13°C° 0 mm 4 mps 764 mmHg 58%
    22:00 +11°C° 0 mm 3 mps 764 mmHg 61%
    23:00 +10°C° 0 mm 3 mps 764 mmHg 63%
    Show more